START_TIME,STEP,MOV.,M34,t_acc.,L5,t_acc.,L18,t_acc.,L14,t_acc.
1981-08-24 18:00:25.730 ,1,1,0.,12.0,0.,12.0,0.,12.0,0.,12.0
1981-08-24 18:00:37.730 ,1,1,0.,12.0,0.,12.0,0.,12.0,0.,12.0
1981-08-24 18:00:49.730 ,2,1,0.,12.0,0.,12.0,0.,12.0,0.,12.0
1981-08-24 18:01:01.730 ,2,1,0.,12.0,0.,12.0,0.,12.0,0.,12.0
1981-08-24 18:01:13.730 ,3,1,0.,12.0,0.,12.0,0.,12.0,0.,12.0
1981-08-24 18:01:25.730 ,3,1,0.,12.0,0.,12.0,0.,12.0,0.,12.0
1981-08-24 18:01:37.730 ,4,1,0.,12.0,0.,12.0,0.,12.0,0.,12.0
1981-08-24 18:01:49.730 ,4,1,0.,12.0,0.,12.0,0.,12.0,0.,12.0
1981-08-24 18:02:01.730 ,5,1,0.,12.0,0.,12.0,0.,12.0,0.,12.0
1981-08-24 18:02:13.730 ,5,1,0.,12.0,0.,12.0,0.,12.0,0.,12.0
1981-08-24 18:02:25.730 ,6,1,0.,12.0,0.,12.0,0.,12.0,0.,12.0
1981-08-24 18:02:37.730 ,6,1,0.,12.0,0.,12.0,0.,12.0,0.,12.0
1981-08-24 18:02:49.730 ,7,1,0.,12.0,0.,12.0,0.,12.0,0.,12.0
1981-08-24 18:03:01.730 ,7,1,0.,12.0,0.,12.0,0.,12.0,0.,12.0
1981-08-24 18:03:13.730 ,7,1,0.,12.0,0.,12.0,0.,12.0,0.,12.0
1981-08-24 18:03:25.730 ,7,1,0.,12.0,0.,12.0,0.,12.0,0.,12.0
1981-08-24 18:03:37.730 ,7,0,0.,12.0,0.,12.0,0.,12.0,0.,12.0
1981-08-24 18:03:49.730 ,7,0,0.,12.0,0.,12.0,0.,12.0,0.,12.0
1981-08-24 18:04:01.730 ,6,1,0.,12.0,0.,12.0,0.,12.0,0.,12.0
1981-08-24 18:04:13.730 ,6,1,0.,12.0,0.,12.0,0.,12.0,0.,12.0
1981-08-24 18:04:25.730 ,6,0,0.,12.0,0.,12.0,0.,12.0,0.,12.0
1981-08-24 18:04:37.730 ,6,0,0.,12.0,0.,12.0,0.,12.0,0.,12.0
1981-08-24 18:04:49.730 ,5,1,0.,12.0,0.,12.0,0.,12.0,0.,12.0
1981-08-24 18:05:01.730 ,5,1,0.,12.0,0.,12.0,0.,12.0,0.,12.0
1981-08-24 18:05:13.730 ,5,0,0.,12.0,0.,12.0,0.,12.0,0.,12.0
1981-08-24 18:05:25.730 ,5,0,0.,12.0,0.,12.0,0.,12.0,0.,12.0
1981-08-24 18:05:37.730 ,4,1,0.,12.0,0.,12.0,0.,12.0,0.,12.0
1981-08-24 18:05:49.730 ,4,1,0.,12.0,0.,12.0,0.,12.0,0.,12.0
1981-08-24 18:06:01.730 ,4,0,0.,12.0,0.,12.0,0.,12.0,0.,12.0
1981-08-24 18:06:13.730 ,4,0,0.,12.0,0.,12.0,0.,12.0,0.,12.0
1981-08-24 18:06:25.730 ,3,1,0.,12.0,0.,12.0,0.,12.0,0.,12.0
1981-08-24 18:06:37.730 ,3,1,0.,12.0,0.,12.0,0.,12.0,0.,12.0
1981-08-24 18:06:49.730 ,3,0,0.,12.0,0.,12.0,0.,12.0,0.,12.0
1981-08-24 18:07:01.730 ,3,0,,0,,0,,0,,0
1981-08-24 18:07:13.730 ,2,1,0.,12.0,0.,12.0,0.,12.0,0.,12.0
1981-08-24 18:07:25.730 ,2,1,0.,12.0,0.,12.0,0.,12.0,0.,12.0
1981-08-24 18:07:37.730 ,2,0,0.,12.0,0.,12.0,0.,12.0,0.,12.0
1981-08-24 18:07:49.730 ,2,0,0.,12.0,0.,12.0,0.,12.0,0.,12.0
1981-08-24 18:08:01.730 ,1,1,0.,12.0,0.,12.0,0.,12.0,0.,12.0
1981-08-24 18:08:13.730 ,1,1,0.,12.0,0.,12.0,0.,12.0,0.,12.0
1981-08-24 18:08:25.730 ,1,0,0.,12.0,0.,12.0,0.,12.0,0.,12.0
1981-08-24 18:08:37.730 ,1,0,0.,12.0,0.,12.0,0.,12.0,0.,12.0
1981-08-24 18:08:49.730 ,0,1,0.,12.0,0.,12.0,0.,12.0,0.,12.0
1981-08-24 18:09:01.730 ,0,1,0.,12.0,0.,12.0,0.,12.0,0.,12.0
1981-08-24 18:09:13.730 ,0,0,0.,12.0,0.,12.0,0.,12.0,0.,12.0
1981-08-24 18:09:25.730 ,0,0,0.,12.0,0.,12.0,0.,12.0,0.,12.0
1981-08-24 18:09:37.730 ,0,1,0.,12.0,0.,12.0,0.,12.0,0.,12.0
1981-08-24 18:09:49.730 ,0,1,0.,12.0,0.,12.0,0.,12.0,0.,12.0
1981-08-24 18:10:01.730 ,0,0,0.,12.0,0.,12.0,0.,12.0,0.,12.0
1981-08-24 18:10:13.730 ,0,0,0.,12.0,0.,12.0,0.,12.0,0.,12.0
1981-08-24 18:10:25.730 ,1,1,0.,12.0,0.,12.0,0.,12.0,0.,12.0
1981-08-24 18:10:37.730 ,1,1,0.,12.0,0.,12.0,0.,12.0,0.,12.0
1981-08-24 18:10:49.730 ,1,0,0.,12.0,0.,12.0,0.,12.0,0.,12.0
1981-08-24 18:11:01.730 ,1,0,0.,12.0,0.,12.0,0.,12.0,0.,12.0
1981-08-24 18:11:13.730 ,2,1,0.,12.0,0.,12.0,0.,12.0,0.,12.0
1981-08-24 18:11:25.730 ,2,1,0.,12.0,0.,12.0,0.,12.0,0.,12.0
1981-08-24 18:11:37.730 ,2,0,0.,12.0,0.,12.0,0.,12.0,0.,12.0
1981-08-24 18:11:49.730 ,2,0,0.,12.0,0.,12.0,0.,12.0,0.,12.0
1981-08-24 18:12:01.730 ,3,1,0.,12.0,0.,12.0,0.,12.0,0.,12.0
1981-08-24 18:12:13.730 ,3,1,0.,12.0,0.,12.0,0.,12.0,0.,12.0
1981-08-24 18:12:25.730 ,3,0,0.,12.0,0.,12.0,0.,12.0,0.,12.0
1981-08-24 18:12:37.730 ,3,0,0.,12.0,0.,12.0,0.,12.0,0.,12.0
1981-08-24 18:12:49.730 ,4,1,0.,12.0,0.,12.0,0.,12.0,0.,12.0
1981-08-24 18:13:01.730 ,4,1,0.,12.0,0.,12.0,0.,12.0,0.,12.0
1981-08-24 18:13:13.730 ,4,0,0.,12.0,0.,12.0,0.,12.0,0.,12.0
1981-08-24 18:13:25.730 ,4,0,0.,12.0,0.,12.0,0.,12.0,0.,12.0
1981-08-24 18:13:37.730 ,5,1,0.,12.0,0.,12.0,0.,12.0,0.,12.0
1981-08-24 18:13:49.730 ,5,1,0.,12.0,0.,12.0,0.,12.0,0.,12.0
1981-08-24 18:14:01.730 ,5,0,0.,12.0,0.,12.0,0.,12.0,0.,12.0
1981-08-24 18:14:13.730 ,5,0,0.,12.0,0.,12.0,0.,12.0,0.,12.0
1981-08-24 18:14:25.730 ,6,1,0.,12.0,0.,12.0,0.,12.0,0.,12.0
1981-08-24 18:14:37.730 ,6,1,0.,12.0,0.,12.0,0.,12.0,0.,12.0
1981-08-24 18:14:49.730 ,6,0,0.,12.0,0.,12.0,0.,12.0,0.,12.0
1981-08-24 18:15:01.730 ,6,0,0.,12.0,0.,12.0,0.,12.0,0.,12.0
1981-08-24 18:15:13.730 ,7,1,0.,12.0,0.,12.0,0.,12.0,0.,12.0
1981-08-24 18:15:25.730 ,7,1,0.,12.0,0.,12.0,0.,12.0,0.,12.0
1981-08-24 18:15:37.730 ,7,0,0.,12.0,0.,12.0,0.,12.0,0.,12.0
1981-08-24 18:15:49.730 ,7,0,0.,12.0,0.,12.0,0.,12.0,0.,12.0
1981-08-24 18:16:01.730 ,7,1,0.,12.0,0.,12.0,0.,12.0,0.,12.0
1981-08-24 18:16:13.730 ,7,1,0.,12.0,0.,12.0,0.,12.0,0.,12.0
1981-08-24 18:16:25.730 ,6,1,0.,12.0,0.,12.0,0.,12.0,0.,12.0
1981-08-24 18:16:37.730 ,6,1,0.,12.0,0.,12.0,0.,12.0,0.,12.0
1981-08-24 18:16:49.730 ,5,1,0.,12.0,0.,12.0,0.,12.0,0.,12.0
1981-08-24 18:17:01.730 ,5,1,0.,12.0,0.,12.0,0.,12.0,0.,12.0
1981-08-24 18:17:13.730 ,4,1,0.,12.0,0.,12.0,0.,12.0,0.,12.0
1981-08-24 18:17:25.730 ,4,1,0.,12.0,0.,12.0,0.,12.0,0.,12.0
1981-08-24 18:17:37.730 ,3,1,0.,12.0,0.,12.0,0.,12.0,0.,12.0
1981-08-24 18:17:49.730 ,3,1,0.,12.0,0.,12.0,0.,12.0,0.,12.0
1981-08-24 18:18:01.730 ,2,1,0.,12.0,0.,12.0,0.,12.0,0.,12.0
1981-08-24 18:18:13.730 ,2,1,0.,12.0,0.,12.0,0.,12.0,0.,12.0
1981-08-24 18:18:25.730 ,1,1,0.,12.0,0.,12.0,0.,12.0,0.,12.0
1981-08-24 18:18:37.730 ,1,1,0.,12.0,0.,12.0,0.,12.0,0.,12.0
1981-08-24 18:18:49.730 ,0,1,0.,12.0,0.,12.0,0.,12.0,0.,12.0
1981-08-24 18:19:01.730 ,0,1,0.,12.0,0.,12.0,0.,12.0,0.,12.0
1981-08-24 18:19:13.730 ,0,1,0.,12.0,0.,12.0,0.,12.0,0.,12.0
1981-08-24 18:19:25.730 ,0,1,0.,12.0,0.,12.0,0.,12.0,0.,12.0
1981-08-24 18:19:37.730 ,1,1,0.,12.0,0.,12.0,0.,12.0,0.,12.0
1981-08-24 18:19:49.730 ,1,1,0.,12.0,0.,12.0,0.,12.0,0.,12.0
1981-08-24 18:20:01.730 ,2,1,0.,12.0,0.,12.0,0.,12.0,0.,12.0
1981-08-24 18:20:13.730 ,2,1,0.,12.0,0.,12.0,0.,12.0,0.,12.0
1981-08-24 18:20:25.730 ,3,1,0.,12.0,0.,12.0,0.,12.0,0.,12.0
1981-08-24 18:20:37.730 ,3,1,0.,12.0,0.,12.0,0.,12.0,0.,12.0
1981-08-24 18:20:49.730 ,4,1,0.,12.0,0.,12.0,0.,12.0,0.,12.0
1981-08-24 18:21:01.730 ,4,1,0.,12.0,0.,12.0,0.,12.0,0.,12.0
1981-08-24 18:21:13.730 ,5,1,0.,12.0,0.,12.0,0.,12.0,0.,12.0
1981-08-24 18:21:25.730 ,5,1,0.,12.0,0.,12.0,0.,12.0,0.,12.0
1981-08-24 18:21:37.730 ,6,1,0.,12.0,0.,12.0,0.,12.0,0.,12.0
1981-08-24 18:21:49.730 ,6,1,0.,12.0,0.,12.0,0.,12.0,0.,12.0
1981-08-24 18:22:01.730 ,7,1,0.,12.0,0.,12.0,0.,12.0,0.,12.0
1981-08-24 18:22:13.730 ,7,1,0.,12.0,0.,12.0,0.,12.0,0.,12.0
1981-08-24 18:22:25.730 ,7,1,0.,12.0,0.,12.0,0.,12.0,0.,12.0
1981-08-24 18:22:37.730 ,7,1,0.,12.0,0.,12.0,0.,12.0,0.,12.0
1981-08-24 18:22:49.730 ,7,0,0.,12.0,0.,12.0,0.,12.0,0.,12.0
1981-08-24 18:23:01.730 ,7,0,0.,12.0,0.,12.0,0.,12.0,0.,12.0
1981-08-24 18:23:13.730 ,6,1,0.,12.0,0.,12.0,0.,12.0,0.,12.0
1981-08-24 18:23:25.730 ,6,1,0.,12.0,0.,12.0,0.,12.0,0.,12.0
1981-08-24 18:23:37.730 ,6,0,0.,12.0,0.,12.0,0.,12.0,0.,12.0
1981-08-24 18:23:49.730 ,6,0,0.,12.0,0.,12.0,0.,12.0,0.,12.0
1981-08-24 18:24:01.730 ,5,1,0.,12.0,0.,12.0,0.,12.0,0.,12.0
1981-08-24 18:24:13.730 ,5,1,0.,12.0,0.,12.0,0.,12.0,0.,12.0
1981-08-24 18:24:25.730 ,5,0,0.,12.0,0.,12.0,0.,12.0,0.,12.0
1981-08-24 18:24:37.730 ,5,0,0.,12.0,0.,12.0,0.,12.0,0.,12.0
1981-08-24 18:24:49.730 ,4,1,0.,12.0,0.,12.0,0.,12.0,0.,12.0
1981-08-24 18:25:01.730 ,4,1,0.,12.0,0.,12.0,0.,12.0,0.,12.0
1981-08-24 18:25:13.730 ,4,0,0.,12.0,0.,12.0,0.,12.0,0.,12.0
1981-08-24 18:25:25.730 ,4,0,0.,12.0,0.,12.0,0.,12.0,0.,12.0
1981-08-24 18:25:37.730 ,3,1,0.,12.0,0.,12.0,0.,12.0,0.,12.0
1981-08-24 18:25:49.730 ,3,1,0.,12.0,0.,12.0,0.,12.0,0.,12.0
1981-08-24 18:26:01.730 ,3,0,0.,12.0,0.,12.0,0.,12.0,0.,12.0
1981-08-24 18:26:13.730 ,3,0,0.,12.0,0.,12.0,0.,12.0,0.,12.0
1981-08-24 18:26:25.730 ,2,1,0.,12.0,1.,12.0,0.,12.0,0.,12.0
1981-08-24 18:26:37.730 ,2,1,0.,12.0,0.,12.0,0.,12.0,0.,12.0
1981-08-24 18:26:49.730 ,2,0,0.,12.0,0.,12.0,0.,12.0,0.,12.0
1981-08-24 18:27:01.730 ,2,0,0.,12.0,0.,12.0,0.,12.0,0.,12.0
1981-08-24 18:27:13.730 ,1,1,0.,12.0,0.,12.0,0.,12.0,0.,12.0
1981-08-24 18:27:25.730 ,1,1,0.,12.0,0.,12.0,0.,12.0,0.,12.0
1981-08-24 18:27:37.730 ,1,0,0.,12.0,0.,12.0,0.,12.0,0.,12.0
1981-08-24 18:27:49.730 ,1,0,0.,12.0,0.,12.0,0.,12.0,0.,12.0
1981-08-24 18:28:01.730 ,0,1,0.,12.0,0.,12.0,0.,12.0,0.,12.0
1981-08-24 18:28:13.730 ,0,1,0.,12.0,0.,12.0,0.,12.0,0.,12.0
1981-08-24 18:28:25.730 ,0,0,0.,12.0,0.,12.0,0.,12.0,0.,12.0
1981-08-24 18:28:37.730 ,0,0,0.,12.0,0.,12.0,0.,12.0,0.,12.0
1981-08-24 18:28:49.730 ,0,1,0.,12.0,0.,12.0,0.,12.0,0.,12.0
1981-08-24 18:29:01.730 ,0,1,0.,12.0,0.,12.0,0.,12.0,0.,12.0
1981-08-24 18:29:13.730 ,0,0,0.,12.0,0.,12.0,0.,12.0,0.,12.0
1981-08-24 18:29:25.730 ,0,0,0.,12.0,0.,12.0,0.,12.0,0.,12.0
1981-08-24 18:29:37.730 ,1,1,0.,12.0,0.,12.0,0.,12.0,0.,12.0
1981-08-24 18:29:49.730 ,1,1,0.,12.0,1.,12.0,0.,12.0,0.,12.0
1981-08-24 18:30:01.730 ,1,0,0.,12.0,0.,12.0,0.,12.0,0.,12.0
1981-08-24 18:30:13.730 ,1,0,0.,12.0,0.,12.0,0.,12.0,0.,12.0
1981-08-24 18:30:25.730 ,2,1,0.,12.0,0.,12.0,0.,12.0,0.,12.0
1981-08-24 18:30:37.730 ,2,1,0.,12.0,0.,12.0,0.,12.0,0.,12.0
1981-08-24 18:30:49.730 ,2,0,0.,12.0,0.,12.0,0.,12.0,0.,12.0
1981-08-24 18:31:01.730 ,2,0,0.,12.0,0.,12.0,0.,12.0,0.,12.0
1981-08-24 18:31:13.730 ,3,1,0.,12.0,0.,12.0,0.,12.0,0.,12.0
1981-08-24 18:31:25.730 ,3,1,0.,12.0,0.,12.0,0.,12.0,0.,12.0
1981-08-24 18:31:37.730 ,3,0,0.,12.0,0.,12.0,0.,12.0,0.,12.0
1981-08-24 18:31:49.730 ,3,0,0.,12.0,0.,12.0,0.,12.0,0.,12.0
1981-08-24 18:32:01.730 ,4,1,0.,12.0,0.,12.0,0.,12.0,0.,12.0
1981-08-24 18:32:13.730 ,4,1,0.,12.0,0.,12.0,0.,12.0,0.,12.0
1981-08-24 18:32:25.730 ,4,0,0.,12.0,0.,12.0,0.,12.0,0.,12.0
1981-08-24 18:32:37.730 ,4,0,0.,12.0,0.,12.0,0.,12.0,0.,12.0
1981-08-24 18:32:49.730 ,5,1,0.,12.0,0.,12.0,0.,12.0,0.,12.0
1981-08-24 18:33:01.730 ,5,1,0.,12.0,0.,12.0,0.,12.0,0.,12.0
1981-08-24 18:33:13.730 ,5,0,0.,12.0,0.,12.0,0.,12.0,0.,12.0
1981-08-24 18:33:25.730 ,5,0,0.,12.0,0.,12.0,0.,12.0,0.,12.0
1981-08-24 18:33:37.730 ,6,1,0.,12.0,0.,12.0,0.,12.0,0.,12.0
1981-08-24 18:33:49.730 ,6,1,0.,12.0,0.,12.0,0.,12.0,0.,12.0
1981-08-24 18:34:01.730 ,6,0,0.,12.0,0.,12.0,0.,12.0,0.,12.0
1981-08-24 18:34:13.730 ,6,0,0.,12.0,0.,12.0,0.,12.0,0.,12.0
1981-08-24 18:34:25.730 ,7,1,0.,12.0,0.,12.0,0.,12.0,0.,12.0
1981-08-24 18:34:37.730 ,7,1,0.,12.0,0.,12.0,0.,12.0,0.,12.0
1981-08-24 18:34:49.730 ,7,0,0.,12.0,0.,12.0,0.,12.0,0.,12.0
1981-08-24 18:35:01.730 ,7,0,0.,12.0,0.,12.0,0.,12.0,0.,12.0
1981-08-24 18:35:13.730 ,7,1,0.,12.0,0.,12.0,0.,12.0,0.,12.0
1981-08-24 18:35:25.730 ,7,1,0.,12.0,0.,12.0,0.,12.0,0.,12.0
1981-08-24 18:35:37.730 ,6,1,0.,12.0,0.,12.0,0.,12.0,0.,12.0
1981-08-24 18:35:49.730 ,6,1,0.,12.0,0.,12.0,0.,12.0,0.,12.0
1981-08-24 18:36:01.730 ,5,1,0.,12.0,0.,12.0,0.,12.0,0.,12.0
1981-08-24 18:36:13.730 ,5,1,0.,12.0,0.,12.0,0.,12.0,0.,12.0
1981-08-24 18:36:25.730 ,4,1,0.,12.0,0.,12.0,0.,12.0,0.,12.0
1981-08-24 18:36:37.730 ,4,1,0.,12.0,0.,12.0,0.,12.0,0.,12.0
1981-08-24 18:36:49.730 ,3,1,0.,12.0,0.,12.0,0.,12.0,0.,12.0
1981-08-24 18:37:01.730 ,3,1,0.,12.0,0.,12.0,0.,12.0,0.,12.0
1981-08-24 18:37:13.730 ,2,1,0.,12.0,0.,12.0,0.,12.0,0.,12.0
1981-08-24 18:37:25.730 ,2,1,0.,12.0,0.,12.0,0.,12.0,0.,12.0
1981-08-24 18:37:37.730 ,1,1,0.,12.0,0.,12.0,0.,12.0,0.,12.0
1981-08-24 18:37:49.730 ,1,1,0.,12.0,0.,12.0,0.,12.0,0.,12.0
1981-08-24 18:38:01.730 ,0,1,0.,12.0,0.,12.0,0.,12.0,0.,12.0
1981-08-24 18:38:13.730 ,0,1,0.,12.0,0.,12.0,0.,12.0,0.,12.0
1981-08-24 18:38:25.730 ,0,1,0.,12.0,0.,12.0,0.,12.0,0.,12.0
1981-08-24 18:38:37.730 ,0,1,0.,12.0,0.,12.0,0.,12.0,0.,12.0
1981-08-24 18:38:49.730 ,1,1,0.,12.0,0.,12.0,0.,12.0,0.,12.0
1981-08-24 18:39:01.730 ,1,1,0.,12.0,0.,12.0,0.,12.0,0.,12.0
1981-08-24 18:39:13.730 ,2,1,0.,12.0,0.,12.0,0.,12.0,0.,12.0
1981-08-24 18:39:25.730 ,2,1,0.,12.0,0.,12.0,0.,12.0,0.,12.0
1981-08-24 18:39:37.730 ,3,1,0.,12.0,0.,12.0,0.,12.0,0.,12.0
1981-08-24 18:39:49.730 ,3,1,0.,12.0,0.,12.0,0.,12.0,0.,12.0
1981-08-24 18:40:01.730 ,4,1,0.,12.0,0.,12.0,0.,12.0,0.,12.0
1981-08-24 18:40:13.730 ,4,1,0.,12.0,0.,12.0,0.,12.0,0.,12.0
1981-08-24 18:40:25.730 ,5,1,0.,12.0,0.,12.0,0.,12.0,0.,12.0
1981-08-24 18:40:37.730 ,5,1,0.,12.0,0.,12.0,0.,12.0,0.,12.0
1981-08-24 18:40:49.730 ,6,1,0.,12.0,0.,12.0,0.,12.0,0.,12.0
1981-08-24 18:41:01.730 ,6,1,0.,12.0,0.,12.0,0.,12.0,0.,12.0
1981-08-24 18:41:13.730 ,7,1,0.,12.0,0.,12.0,0.,12.0,0.,12.0
1981-08-24 18:41:25.730 ,7,1,0.,12.0,0.,12.0,0.,12.0,0.,12.0
1981-08-24 18:41:37.730 ,7,1,0.,12.0,0.,12.0,0.,12.0,0.,12.0
1981-08-24 18:41:49.730 ,7,1,0.,12.0,0.,12.0,0.,12.0,0.,12.0
1981-08-24 18:42:01.730 ,7,0,0.,12.0,0.,12.0,0.,12.0,0.,12.0
1981-08-24 18:42:13.730 ,7,0,0.,12.0,0.,12.0,0.,12.0,0.,12.0
1981-08-24 18:42:25.730 ,6,1,0.,12.0,0.,12.0,0.,12.0,0.,12.0
1981-08-24 18:42:37.730 ,6,1,0.,12.0,0.,12.0,0.,12.0,0.,12.0
1981-08-24 18:42:49.730 ,6,0,0.,12.0,0.,12.0,0.,12.0,0.,12.0
1981-08-24 18:43:01.730 ,6,0,0.,12.0,0.,12.0,0.,12.0,0.,12.0
1981-08-24 18:43:13.730 ,5,1,0.,12.0,0.,12.0,0.,12.0,0.,12.0
1981-08-24 18:43:25.730 ,5,1,0.,12.0,0.,12.0,0.,12.0,0.,12.0
1981-08-24 18:43:37.730 ,5,0,0.,12.0,0.,12.0,0.,12.0,0.,12.0
1981-08-24 18:43:49.730 ,5,0,0.,12.0,0.,12.0,0.,12.0,0.,12.0
1981-08-24 18:44:01.730 ,4,1,1.,12.0,0.,12.0,0.,12.0,0.,12.0
1981-08-24 18:44:13.730 ,4,1,0.,12.0,0.,12.0,0.,12.0,0.,12.0
1981-08-24 18:44:25.730 ,4,0,0.,12.0,0.,12.0,0.,12.0,0.,12.0
1981-08-24 18:44:37.730 ,4,0,0.,12.0,0.,12.0,0.,12.0,0.,12.0
1981-08-24 18:44:49.730 ,3,1,0.,12.0,0.,12.0,0.,12.0,0.,12.0
1981-08-24 18:45:01.730 ,3,1,0.,12.0,0.,12.0,0.,12.0,0.,12.0
1981-08-24 18:45:13.730 ,3,0,0.,12.0,0.,12.0,0.,12.0,0.,12.0
1981-08-24 18:45:25.730 ,3,0,0.,12.0,0.,12.0,0.,12.0,0.,12.0
1981-08-24 18:45:37.730 ,2,1,0.,12.0,0.,12.0,0.,12.0,0.,12.0
1981-08-24 18:45:49.730 ,2,1,0.,12.0,0.,12.0,0.,12.0,0.,12.0
1981-08-24 18:46:01.730 ,2,0,0.,12.0,0.,12.0,0.,12.0,0.,12.0
1981-08-24 18:46:13.730 ,2,0,0.,12.0,0.,12.0,0.,12.0,0.,12.0
1981-08-24 18:46:25.730 ,1,1,0.,12.0,0.,12.0,0.,12.0,0.,12.0
1981-08-24 18:46:37.730 ,1,1,0.,12.0,0.,12.0,0.,12.0,0.,12.0
1981-08-24 18:46:49.730 ,1,0,0.,12.0,0.,12.0,0.,12.0,0.,12.0
1981-08-24 18:47:01.730 ,1,0,0.,12.0,0.,12.0,0.,12.0,0.,12.0
1981-08-24 18:47:13.730 ,0,1,0.,12.0,0.,12.0,0.,12.0,0.,12.0
1981-08-24 18:47:25.730 ,0,1,0.,12.0,0.,12.0,0.,12.0,0.,12.0
1981-08-24 18:47:37.730 ,0,0,0.,12.0,0.,12.0,0.,12.0,0.,12.0
1981-08-24 18:47:49.730 ,0,0,0.,12.0,0.,12.0,0.,12.0,0.,12.0
1981-08-24 18:48:01.730 ,0,1,0.,12.0,0.,12.0,0.,12.0,0.,12.0
1981-08-24 18:48:13.730 ,0,1,0.,12.0,0.,12.0,0.,12.0,0.,12.0
1981-08-24 18:48:25.730 ,0,0,0.,12.0,0.,12.0,0.,12.0,0.,12.0
1981-08-24 18:48:37.730 ,0,0,0.,12.0,0.,12.0,0.,12.0,0.,12.0
1981-08-24 18:48:49.730 ,1,1,0.,12.0,0.,12.0,0.,12.0,0.,12.0
1981-08-24 18:49:01.730 ,1,1,0.,12.0,0.,12.0,0.,12.0,0.,12.0
1981-08-24 18:49:13.730 ,1,0,0.,12.0,0.,12.0,0.,12.0,0.,12.0
1981-08-24 18:49:25.730 ,1,0,0.,12.0,0.,12.0,0.,12.0,0.,12.0
1981-08-24 18:49:37.730 ,2,1,0.,12.0,0.,12.0,0.,12.0,0.,12.0
1981-08-24 18:49:49.730 ,2,1,0.,12.0,0.,12.0,0.,12.0,0.,12.0
1981-08-24 18:50:01.730 ,2,0,0.,12.0,0.,12.0,0.,12.0,0.,12.0
1981-08-24 18:50:13.730 ,2,0,0.,12.0,0.,12.0,0.,12.0,0.,12.0
1981-08-24 18:50:25.730 ,3,1,0.,12.0,0.,12.0,0.,12.0,0.,12.0
1981-08-24 18:50:37.730 ,3,1,0.,12.0,0.,12.0,0.,12.0,0.,12.0
1981-08-24 18:50:49.730 ,3,0,0.,12.0,0.,12.0,0.,12.0,0.,12.0
1981-08-24 18:51:01.730 ,3,0,0.,12.0,0.,12.0,0.,12.0,0.,12.0
1981-08-24 18:51:13.730 ,4,1,0.,12.0,0.,12.0,0.,12.0,0.,12.0
1981-08-24 18:51:25.730 ,4,1,0.,12.0,0.,12.0,0.,12.0,0.,12.0
1981-08-24 18:51:37.730 ,4,0,0.,12.0,0.,12.0,0.,12.0,0.,12.0
1981-08-24 18:51:49.730 ,4,0,0.,12.0,0.,12.0,0.,12.0,0.,12.0
1981-08-24 18:52:01.730 ,5,1,0.,12.0,0.,12.0,0.,12.0,0.,12.0
1981-08-24 18:52:13.730 ,5,1,0.,12.0,0.,12.0,0.,12.0,0.,12.0
1981-08-24 18:52:25.730 ,5,0,0.,12.0,0.,12.0,0.,12.0,0.,12.0
1981-08-24 18:52:37.730 ,5,0,0.,12.0,0.,12.0,0.,12.0,0.,12.0
1981-08-24 18:52:49.730 ,6,1,0.,12.0,0.,12.0,0.,12.0,0.,12.0
1981-08-24 18:53:01.730 ,6,1,0.,12.0,0.,12.0,0.,12.0,0.,12.0
1981-08-24 18:53:13.730 ,6,0,0.,12.0,0.,12.0,0.,12.0,0.,12.0
1981-08-24 18:53:25.730 ,6,0,0.,12.0,0.,12.0,0.,12.0,0.,12.0
1981-08-24 18:53:37.730 ,7,1,0.,12.0,0.,12.0,0.,12.0,0.,12.0
1981-08-24 18:53:49.730 ,7,1,0.,12.0,0.,12.0,0.,12.0,0.,12.0
1981-08-24 18:54:01.730 ,7,0,0.,12.0,0.,12.0,0.,12.0,0.,12.0
1981-08-24 18:54:13.730 ,7,0,0.,12.0,0.,12.0,0.,12.0,0.,12.0
1981-08-24 18:54:25.730 ,7,1,0.,12.0,0.,12.0,0.,12.0,0.,12.0
1981-08-24 18:54:37.730 ,7,1,0.,12.0,0.,12.0,0.,12.0,0.,12.0
1981-08-24 18:54:49.730 ,6,1,0.,12.0,0.,12.0,0.,12.0,0.,12.0
1981-08-24 18:55:01.730 ,6,1,0.,12.0,0.,12.0,0.,12.0,0.,12.0
1981-08-24 18:55:13.730 ,5,1,0.,12.0,0.,12.0,0.,12.0,0.,12.0
1981-08-24 18:55:25.730 ,5,1,0.,12.0,0.,12.0,0.,12.0,0.,12.0
1981-08-24 18:55:37.730 ,4,1,0.,12.0,0.,12.0,0.,12.0,0.,12.0
1981-08-24 18:55:49.730 ,4,1,0.,12.0,0.,12.0,0.,12.0,0.,12.0
1981-08-24 18:56:01.730 ,3,1,0.,12.0,0.,12.0,0.,12.0,0.,12.0
1981-08-24 18:56:13.730 ,3,1,0.,12.0,0.,12.0,0.,12.0,0.,12.0
1981-08-24 18:56:25.730 ,2,1,0.,12.0,0.,12.0,0.,12.0,0.,12.0
1981-08-24 18:56:37.730 ,2,1,0.,12.0,0.,12.0,0.,12.0,0.,12.0
1981-08-24 18:56:49.730 ,1,1,0.,12.0,0.,12.0,0.,12.0,0.,12.0
1981-08-24 18:57:01.730 ,1,1,0.,12.0,0.,12.0,0.,12.0,0.,12.0
1981-08-24 18:57:13.730 ,0,1,0.,12.0,0.,12.0,0.,12.0,0.,12.0
1981-08-24 18:57:25.730 ,0,1,0.,12.0,0.,12.0,0.,12.0,0.,12.0
1981-08-24 18:57:37.730 ,0,1,0.,12.0,0.,12.0,0.,12.0,0.,12.0
1981-08-24 18:57:49.730 ,0,1,0.,12.0,0.,12.0,0.,12.0,0.,12.0
1981-08-24 18:58:01.730 ,1,1,0.,12.0,0.,12.0,0.,12.0,0.,12.0
1981-08-24 18:58:13.730 ,1,1,0.,12.0,0.,12.0,0.,12.0,0.,12.0
1981-08-24 18:58:25.730 ,2,1,0.,12.0,0.,12.0,0.,12.0,0.,12.0
1981-08-24 18:58:37.730 ,2,1,0.,12.0,0.,12.0,0.,12.0,0.,12.0
1981-08-24 18:58:49.730 ,3,1,0.,12.0,0.,12.0,0.,12.0,0.,12.0
1981-08-24 18:59:01.730 ,3,1,0.,12.0,0.,12.0,0.,12.0,0.,12.0
1981-08-24 18:59:13.730 ,4,1,0.,12.0,0.,12.0,0.,12.0,0.,12.0
1981-08-24 18:59:25.730 ,4,1,0.,12.0,0.,12.0,0.,12.0,0.,12.0
1981-08-24 18:59:37.730 ,5,1,0.,12.0,0.,12.0,0.,12.0,0.,12.0
1981-08-24 18:59:49.730 ,5,1,0.,12.0,0.,12.0,0.,12.0,0.,12.0
1981-08-24 19:00:01.730 ,6,1,0.,12.0,0.,12.0,0.,12.0,0.,12.0
1981-08-24 19:00:13.730 ,6,1,0.,12.0,0.,12.0,0.,12.0,0.,12.0
1981-08-24 19:00:25.730 ,7,1,0.,12.0,0.,12.0,0.,12.0,0.,12.0
1981-08-24 19:00:37.730 ,7,1,0.,12.0,0.,12.0,0.,12.0,0.,12.0
1981-08-24 19:00:49.730 ,7,1,0.,12.0,0.,12.0,0.,12.0,0.,12.0
1981-08-24 19:01:01.730 ,7,1,0.,12.0,0.,12.0,0.,12.0,0.,12.0
1981-08-24 19:01:13.730 ,7,0,0.,12.0,0.,12.0,0.,12.0,0.,12.0
1981-08-24 19:01:25.730 ,7,0,0.,12.0,0.,12.0,0.,12.0,0.,12.0
1981-08-24 19:01:37.730 ,6,1,0.,12.0,0.,12.0,0.,12.0,0.,12.0
1981-08-24 19:01:49.730 ,6,1,0.,12.0,0.,12.0,0.,12.0,0.,12.0
1981-08-24 19:02:01.730 ,6,0,0.,12.0,0.,12.0,0.,12.0,0.,12.0
1981-08-24 19:02:13.730 ,6,0,0.,12.0,0.,12.0,0.,12.0,0.,12.0
1981-08-24 19:02:25.730 ,5,1,0.,12.0,0.,12.0,0.,12.0,0.,12.0
1981-08-24 19:02:37.730 ,5,1,0.,12.0,0.,12.0,0.,12.0,0.,12.0
1981-08-24 19:02:49.730 ,5,0,0.,12.0,0.,12.0,0.,12.0,0.,12.0
1981-08-24 19:03:01.730 ,5,0,0.,12.0,0.,12.0,0.,12.0,0.,12.0
1981-08-24 19:03:13.730 ,4,1,0.,12.0,0.,12.0,0.,12.0,0.,12.0
1981-08-24 19:03:25.730 ,4,1,0.,12.0,0.,12.0,0.,12.0,0.,12.0
1981-08-24 19:03:37.730 ,4,0,0.,12.0,0.,12.0,0.,12.0,0.,12.0
1981-08-24 19:03:49.730 ,4,0,0.,12.0,0.,12.0,0.,12.0,0.,12.0
1981-08-24 19:04:01.730 ,3,1,0.,12.0,0.,12.0,0.,12.0,0.,12.0
1981-08-24 19:04:13.730 ,3,1,0.,12.0,0.,12.0,0.,12.0,0.,12.0
1981-08-24 19:04:25.730 ,3,0,0.,12.0,0.,12.0,0.,12.0,0.,12.0
1981-08-24 19:04:37.730 ,3,0,0.,12.0,0.,12.0,0.,12.0,0.,12.0
1981-08-24 19:04:49.730 ,2,1,0.,12.0,0.,12.0,0.,12.0,0.,12.0
1981-08-24 19:05:01.730 ,2,1,0.,12.0,0.,12.0,0.,12.0,0.,12.0
1981-08-24 19:05:13.730 ,2,0,0.,12.0,0.,12.0,0.,12.0,0.,12.0
1981-08-24 19:05:25.730 ,2,0,0.,12.0,0.,12.0,0.,12.0,0.,12.0
1981-08-24 19:05:37.730 ,1,1,0.,12.0,0.,12.0,0.,12.0,0.,12.0
1981-08-24 19:05:49.730 ,1,1,0.,12.0,0.,12.0,0.,12.0,0.,12.0
1981-08-24 19:06:01.730 ,1,0,0.,12.0,0.,12.0,0.,12.0,0.,12.0
1981-08-24 19:06:13.730 ,1,0,0.,12.0,0.,12.0,0.,12.0,0.,12.0
1981-08-24 19:06:25.730 ,0,1,0.,12.0,0.,12.0,0.,12.0,0.,12.0
1981-08-24 19:06:37.730 ,0,1,0.,12.0,0.,12.0,0.,12.0,0.,12.0
1981-08-24 19:06:49.730 ,0,0,0.,12.0,0.,12.0,0.,12.0,0.,12.0
1981-08-24 19:07:01.730 ,0,0,0.,12.0,0.,12.0,0.,12.0,0.,12.0
1981-08-24 19:07:13.730 ,0,1,0.,12.0,0.,12.0,0.,12.0,0.,12.0
1981-08-24 19:07:25.730 ,0,1,0.,12.0,0.,12.0,0.,12.0,0.,12.0
1981-08-24 19:07:37.730 ,0,0,0.,12.0,0.,12.0,0.,12.0,0.,12.0
1981-08-24 19:07:49.730 ,0,0,0.,12.0,0.,12.0,0.,12.0,0.,12.0
1981-08-24 19:08:01.730 ,1,1,0.,12.0,0.,12.0,0.,12.0,0.,12.0
1981-08-24 19:08:13.730 ,1,1,0.,12.0,0.,12.0,0.,12.0,0.,12.0
1981-08-24 19:08:25.730 ,1,0,0.,12.0,0.,12.0,0.,12.0,0.,12.0
1981-08-24 19:08:37.730 ,1,0,0.,12.0,0.,12.0,0.,12.0,0.,12.0
1981-08-24 19:08:49.730 ,2,1,0.,12.0,0.,12.0,0.,12.0,0.,12.0
1981-08-24 19:09:01.730 ,2,1,0.,12.0,0.,12.0,0.,12.0,0.,12.0
1981-08-24 19:09:13.730 ,2,0,0.,12.0,0.,12.0,0.,12.0,0.,12.0
1981-08-24 19:09:25.730 ,2,0,0.,12.0,0.,12.0,0.,12.0,0.,12.0
1981-08-24 19:09:37.730 ,3,1,0.,12.0,0.,12.0,0.,12.0,0.,12.0
1981-08-24 19:09:49.730 ,3,1,0.,12.0,0.,12.0,0.,12.0,0.,12.0
1981-08-24 19:10:01.730 ,3,0,0.,12.0,0.,12.0,0.,12.0,0.,12.0
1981-08-24 19:10:13.730 ,3,0,0.,12.0,0.,12.0,0.,12.0,0.,12.0
1981-08-24 19:10:25.730 ,4,1,1.,12.0,0.,12.0,0.,12.0,0.,12.0
1981-08-24 19:10:37.730 ,4,1,0.,12.0,0.,12.0,0.,12.0,0.,12.0
1981-08-24 19:10:49.730 ,4,0,0.,12.0,0.,12.0,0.,12.0,0.,12.0
1981-08-24 19:11:01.730 ,4,0,0.,12.0,0.,12.0,0.,12.0,0.,12.0
1981-08-24 19:11:13.730 ,5,1,0.,12.0,0.,12.0,0.,12.0,0.,12.0
1981-08-24 19:11:25.730 ,5,1,0.,12.0,0.,12.0,0.,12.0,0.,12.0
1981-08-24 19:11:37.730 ,5,0,0.,12.0,0.,12.0,0.,12.0,0.,12.0
1981-08-24 19:11:49.730 ,5,0,0.,12.0,0.,12.0,0.,12.0,0.,12.0
1981-08-24 19:12:01.730 ,6,1,0.,12.0,0.,12.0,0.,12.0,0.,12.0
1981-08-24 19:12:13.730 ,6,1,0.,12.0,0.,12.0,0.,12.0,0.,12.0
1981-08-24 19:12:25.730 ,6,0,0.,12.0,0.,12.0,0.,12.0,0.,12.0
1981-08-24 19:12:37.730 ,6,0,0.,12.0,0.,12.0,0.,12.0,0.,12.0
1981-08-24 19:12:49.730 ,7,1,0.,12.0,1.,12.0,0.,12.0,0.,12.0
1981-08-24 19:13:01.730 ,7,1,0.,12.0,0.,12.0,0.,12.0,0.,12.0
1981-08-24 19:13:13.730 ,7,0,0.,12.0,0.,12.0,0.,12.0,0.,12.0
1981-08-24 19:13:25.730 ,7,0,0.,12.0,0.,12.0,0.,12.0,0.,12.0
1981-08-24 19:13:37.730 ,7,1,0.,12.0,0.,12.0,0.,12.0,0.,12.0
1981-08-24 19:13:49.730 ,7,1,0.,12.0,0.,12.0,0.,12.0,0.,12.0
1981-08-24 19:14:01.730 ,6,1,0.,12.0,0.,12.0,0.,12.0,0.,12.0
1981-08-24 19:14:13.730 ,6,1,0.,12.0,0.,12.0,0.,12.0,0.,12.0
1981-08-24 19:14:25.730 ,5,1,0.,12.0,0.,12.0,0.,12.0,0.,12.0
1981-08-24 19:14:37.730 ,5,1,0.,12.0,0.,12.0,0.,12.0,0.,12.0
1981-08-24 19:14:49.730 ,4,1,0.,12.0,0.,12.0,0.,12.0,0.,12.0
1981-08-24 19:15:01.730 ,4,1,0.,12.0,0.,12.0,0.,12.0,0.,12.0
1981-08-24 19:15:13.730 ,3,1,0.,12.0,0.,12.0,0.,12.0,0.,12.0
1981-08-24 19:15:25.730 ,3,1,0.,12.0,0.,12.0,0.,12.0,0.,12.0
1981-08-24 19:15:37.730 ,2,1,0.,12.0,0.,12.0,0.,12.0,0.,12.0
1981-08-24 19:15:49.730 ,2,1,0.,12.0,0.,12.0,0.,12.0,0.,12.0
1981-08-24 19:16:01.730 ,1,1,0.,12.0,0.,12.0,0.,12.0,0.,12.0
1981-08-24 19:16:13.730 ,1,1,0.,12.0,0.,12.0,0.,12.0,0.,12.0
1981-08-24 19:16:25.730 ,0,1,0.,12.0,0.,12.0,0.,12.0,0.,12.0
1981-08-24 19:16:37.730 ,0,1,0.,12.0,0.,12.0,0.,12.0,0.,12.0
1981-08-24 19:16:49.730 ,0,0,0.,12.0,0.,12.0,0.,12.0,0.,12.0
1981-08-24 19:17:01.730 ,0,0,0.,12.0,0.,12.0,0.,12.0,0.,12.0
1981-08-24 19:17:13.730 ,1,1,0.,12.0,0.,12.0,0.,12.0,0.,12.0
1981-08-24 19:17:25.730 ,1,1,0.,12.0,0.,12.0,0.,12.0,0.,12.0